Metropolis, IL

12:20 AM CDT on April 24, 2017 (GMT -0500)
Metropolis

Weather History for KM30 - November, 2012

Change the Weather History Date:

Tuesday, November 20, 2012

  Actual Average (KPAH) Record (KPAH)
Temperature  
Mean Temperature 58 °F -  
Max Temperature 68 °F 55 °F 80 °F (1942)
Min Temperature 49 °F 38 °F 20 °F (1951)
Degree Days  
Heating Degree Days 6    
Growing Degree Days 8 (Base 50)    
Moisture  
Dew Point 46 °F    
Average Humidity 65    
Maximum Humidity 90    
Minimum Humidity 49    
Precipitation  
Precipitation 0.00 in - - ()
Sea Level Pressure  
Sea Level Pressure 30.11 in    
Wind  
Wind Speed 3 mph (WSW)    
Max Wind Speed 9 mph    
Max Gust Speed -    
Visibility 10 miles    
Events      
Averages and records for this station are not official NWS values.
T = Trace of Precipitation, MM = Missing Value Source: NWS Daily Summary

Daily Weather History Graph

Daily Weather History Graph

Search for Another Location

Airport or City:

Trip Planner

Search our weather history database for the weather conditions in past years. The results will help you decide how hot, cold, wet, or windy it might be!

Date:

Astronomy

Nov. 20, 2012 Rise Set
Actual Time 6:39 AM CST 4:41 PM CST
Civil Twilight 6:11 AM CST 5:09 PM CST
Nautical Twilight 5:39 AM CST 5:41 PM CST
Astronomical Twilight 5:08 AM CST 6:12 PM CST
Moon 12:18 PM CST (11/20) No Moon Set
Length of Visible Light 10h 58m
Length of Day
10h 01m
First Quarter, 51% of the Moon is Illuminated
Nov 20
First Quarter
Nov 28
Full
Dec 6
Last Quarter
Dec 13
New
Dec 19
First Quarter

Hourly Weather History & Observations

Time (CST) Temp. Dew Point Humidity Pressure Visibility Wind Dir Wind Speed Gust Speed Precip Events Conditions
12:15 AM 50.4 °F 43.7 °F 78% 30.16 in 10.0 mi Calm Calm - N/A   Overcast
12:35 AM 50.9 °F 43.9 °F 77% 30.15 in 10.0 mi Calm Calm - N/A   Overcast
12:55 AM 50.9 °F 43.7 °F 76% 30.15 in 10.0 mi Calm Calm - N/A   Overcast
1:15 AM 50.9 °F 44.2 °F 78% 30.15 in 10.0 mi Calm Calm - N/A   Overcast
1:55 AM 50.2 °F 43.7 °F 78% 30.16 in 10.0 mi Calm Calm - N/A   Overcast
2:15 AM 49.5 °F 44.1 °F 82% 30.16 in 10.0 mi Calm Calm - N/A   Overcast
6:15 AM 52.2 °F 41.0 °F 66% 30.13 in 10.0 mi South 5.8 mph - N/A   Mostly Cloudy
6:35 AM 52.0 °F 41.9 °F 69% 30.13 in 10.0 mi South 5.8 mph - N/A   Mostly Cloudy
6:55 AM 53.4 °F 42.3 °F 66% 30.14 in 10.0 mi SSW 3.5 mph - N/A   Overcast
7:15 AM 54.0 °F 42.3 °F 65% 30.14 in 10.0 mi South 3.5 mph - N/A   Overcast
7:35 AM 54.5 °F 42.4 °F 64% 30.14 in 10.0 mi SSW 3.5 mph - N/A   Overcast
7:55 AM 55.4 °F 42.8 °F 63% 30.14 in 10.0 mi SW 5.8 mph - N/A   Overcast
8:15 AM 55.9 °F 42.3 °F 60% 30.14 in 10.0 mi SW 8.1 mph - N/A   Mostly Cloudy
8:35 AM 56.7 °F 42.8 °F 60% 30.14 in 10.0 mi SW 5.8 mph - N/A   Scattered Clouds
8:55 AM 57.9 °F 42.8 °F 57% 30.13 in 10.0 mi WSW 9.2 mph - N/A   Scattered Clouds
9:15 AM 59.0 °F 43.0 °F 55% 30.13 in 10.0 mi West 8.1 mph - N/A   Clear
9:35 AM 59.9 °F 43.2 °F 54% 30.13 in 10.0 mi WSW 6.9 mph - N/A   Clear
9:55 AM 60.8 °F 43.7 °F 53% 30.13 in 10.0 mi WSW 5.8 mph - N/A   Clear
10:15 AM 61.5 °F 43.7 °F 52% 30.13 in 10.0 mi WSW 6.9 mph - N/A   Clear
10:35 AM 61.9 °F 44.1 °F 52% 30.12 in 10.0 mi WSW 4.6 mph - N/A   Clear
10:55 AM 63.5 °F 44.8 °F 51% 30.11 in 10.0 mi WSW 5.8 mph - N/A   Clear
11:15 AM 63.5 °F 44.6 °F 50% 30.10 in 10.0 mi SW 5.8 mph - N/A   Clear
11:35 AM 65.1 °F 45.7 °F 49% 30.08 in 10.0 mi South 5.8 mph - N/A   Clear
11:55 AM 66.0 °F 46.4 °F 49% 30.08 in 10.0 mi SW 4.6 mph - N/A   Clear
12:35 PM 67.1 °F 47.3 °F 49% 30.06 in 10.0 mi SW 4.6 mph - N/A   Clear
12:55 PM 67.3 °F 47.5 °F 49% 30.06 in 10.0 mi SW 8.1 mph - N/A   Clear
1:15 PM 68.0 °F 48.0 °F 49% 30.05 in 10.0 mi WSW 4.6 mph - N/A   Clear
1:35 PM 68.0 °F 48.4 °F 49% 30.05 in 10.0 mi WSW 9.2 mph - N/A   Clear
1:55 PM 66.6 °F 47.8 °F 51% 30.05 in 10.0 mi WSW 6.9 mph - N/A   Clear
2:15 PM 67.1 °F 48.2 °F 51% 30.04 in 10.0 mi WSW 6.9 mph - N/A   Clear
2:35 PM 66.7 °F 48.4 °F 52% 30.04 in 10.0 mi WSW 8.1 mph - N/A   Clear
2:55 PM 66.4 °F 48.4 °F 52% 30.04 in 10.0 mi West 6.9 mph - N/A   Clear
3:15 PM 66.2 °F 48.7 °F 53% 30.05 in 10.0 mi WSW 5.8 mph - N/A   Clear
3:35 PM 65.7 °F 49.3 °F 55% 30.06 in 10.0 mi West 6.9 mph - N/A   Clear
3:55 PM 64.9 °F 49.5 °F 57% 30.06 in 10.0 mi WSW 5.8 mph - N/A   Clear
4:15 PM 63.9 °F 49.5 °F 59% 30.06 in 10.0 mi West 4.6 mph - N/A   Clear
4:35 PM 62.4 °F 49.5 °F 63% 30.07 in 10.0 mi West 4.6 mph - N/A   Clear
4:55 PM 61.7 °F 49.5 °F 64% 30.07 in 10.0 mi Calm Calm - N/A   Clear
5:15 PM 59.4 °F 49.3 °F 69% 30.08 in 10.0 mi Calm Calm - N/A   Clear
5:35 PM 55.9 °F 49.1 °F 78% 30.08 in 10.0 mi Calm Calm - N/A   Clear
5:55 PM 55.8 °F 48.4 °F 76% 30.09 in 10.0 mi Calm Calm - N/A   Clear
6:15 PM 54.3 °F 47.8 °F 79% 30.10 in 10.0 mi Calm Calm - N/A   Scattered Clouds
6:35 PM 56.1 °F 48.2 °F 75% 30.10 in 10.0 mi NW 5.8 mph - N/A   Scattered Clouds
6:55 PM 57.0 °F 48.0 °F 72% 30.11 in 10.0 mi NW 4.6 mph - N/A   Clear
7:15 PM 57.2 °F 48.0 °F 71% 30.12 in 10.0 mi NW 5.8 mph - N/A   Clear
7:35 PM 56.7 °F 47.7 °F 72% 30.12 in 10.0 mi NW 5.8 mph - N/A   Clear
7:55 PM 56.8 °F 47.7 °F 71% 30.13 in 10.0 mi NNW 6.9 mph - N/A   Clear
8:15 PM 55.8 °F 47.3 °F 73% 30.13 in 10.0 mi North 3.5 mph - N/A   Clear
8:55 PM 53.6 °F 46.6 °F 77% 30.14 in 10.0 mi Calm Calm - N/A   Clear
9:15 PM 53.2 °F 46.6 °F 78% 30.14 in 10.0 mi NNW 3.5 mph - N/A   Clear
9:35 PM 53.4 °F 46.8 °F 78% 30.14 in 10.0 mi Calm Calm - N/A   Clear
9:55 PM 52.9 °F 46.8 °F 80% 30.14 in 10.0 mi North 3.5 mph - N/A   Clear
10:15 PM 51.6 °F 46.4 °F 82% 30.15 in 10.0 mi North 3.5 mph - N/A   Clear
10:35 PM 51.3 °F 46.4 °F 83% 30.16 in 10.0 mi NNW 4.6 mph - N/A   Clear
10:55 PM 51.3 °F 46.4 °F 83% 30.16 in 10.0 mi NNW 4.6 mph - N/A   Clear
11:15 PM 50.4 °F 46.2 °F 86% 30.16 in 7.0 mi NNW 3.5 mph - N/A   Clear
11:55 PM 49.1 °F 46.2 °F 90% 30.16 in 7.0 mi Calm Calm - N/A   Clear